{"data":{"norad_id":58971,"intl_designator":"2024-031G","name":"STARLINK-31333","alt_names":[],"object_type":"PAYLOAD","status":"ACTIVE","operator":null,"country":"US","launch_date":"2024-02-15","launch_site_code":"AFWTR","launch_vehicle":null,"mission":null,"orbit_class":"UNKNOWN","rcs_meters":null,"size_class":null,"mass_kg":null,"dimensions":null,"purposes":["comms"],"wikipedia_slug":null,"has_3d_model":false,"image_url":null,"decayed_at":null,"tle_current":{"epoch":"2026-05-24T19:21:51.296544Z","epoch_age_seconds":102040,"freshness":"FRESH","line1":"1 58971U 24031G   26144.80684371  .00000454  00000+0  27475-4 0  9995","line2":"2 58971  53.1604 290.5959 0001230  85.5333 274.5808 15.30192802128368","mean_motion":15.30192802,"eccentricity":0.000123,"inclination_deg":53.1604,"raan_deg":290.5959,"arg_perigee_deg":85.5333,"mean_anomaly_deg":274.5808,"bstar":2.7475e-5,"rev_number":12836,"period_min":94.105788376333,"perigee_km":474.39359648607,"apogee_km":476.07952638218,"semimajor_km":6853.3735614341,"source":"CELESTRAK","updated_at":"2026-05-25T13:38:18.794374Z"}}}